Time,TemperatureF,DewpointF,PressureIn,WindDirection,WindDirectionDegrees,WindSpeedMPH,WindSpeedGustMPH,Humidity,HourlyPrecipIn,Conditions,Clouds,dailyrainin,SoftwareType,DateUTC
2013-08-29 00:00:00,72.1,70.3,29.99,NNW,341,0.0,2.0,94,0.00,,,0.00,Wunderground v.1.15,2013-08-29 05:00:00,
2013-08-29 00:05:00,72.1,70.3,29.99,NE,39,0.0,2.0,94,0.00,,,0.00,Wunderground v.1.15,2013-08-29 05:05:00,
2013-08-29 00:10:00,72.0,70.2,29.99,ESE,120,0.0,2.0,94,0.00,,,0.00,Wunderground v.1.15,2013-08-29 05:10:00,
2013-08-29 00:15:00,71.9,70.1,29.99,NE,36,0.0,2.0,94,0.00,,,0.00,Wunderground v.1.15,2013-08-29 05:15:00,
2013-08-29 00:21:00,71.6,69.8,29.99,NE,35,0.0,2.0,94,0.00,,,0.00,Wunderground v.1.15,2013-08-29 05:21:00,
2013-08-29 00:26:00,71.4,69.6,29.98,ENE,67,0.0,2.0,94,0.00,,,0.00,Wunderground v.1.15,2013-08-29 05:26:00,
2013-08-29 00:31:00,71.2,69.4,29.98,NE,53,0.0,2.0,94,0.00,,,0.00,Wunderground v.1.15,2013-08-29 05:31:00,
2013-08-29 00:37:00,71.2,69.4,29.98,ENE,64,1.0,2.0,94,0.00,,,0.00,Wunderground v.1.15,2013-08-29 05:37:00,
2013-08-29 00:42:00,71.2,69.4,29.98,ENE,64,0.0,2.0,94,0.00,,,0.00,Wunderground v.1.15,2013-08-29 05:42:00,
2013-08-29 00:47:00,71.1,69.3,29.98,NNE,17,0.0,2.0,94,0.00,,,0.00,Wunderground v.1.15,2013-08-29 05:47:00,
2013-08-29 00:53:00,70.9,69.1,29.98,NE,40,1.0,2.0,94,0.00,,,0.00,Wunderground v.1.15,2013-08-29 05:53:00,
2013-08-29 00:58:00,70.9,69.4,29.98,NE,40,0.0,2.0,95,0.00,,,0.00,Wunderground v.1.15,2013-08-29 05:58:00,
2013-08-29 01:03:00,70.9,69.4,29.98,North,351,0.0,2.0,95,0.00,,,0.00,Wunderground v.1.15,2013-08-29 06:03:00,
2013-08-29 01:08:00,70.7,68.9,29.98,North,351,0.0,2.0,94,0.00,,,0.00,Wunderground v.1.15,2013-08-29 06:08:00,
2013-08-29 01:14:00,70.3,68.8,29.98,NNE,12,1.0,2.0,95,0.00,,,0.00,Wunderground v.1.15,2013-08-29 06:14:00,
2013-08-29 01:19:00,70.1,68.6,29.98,North,10,1.0,2.0,95,0.00,,,0.00,Wunderground v.1.15,2013-08-29 06:19:00,
2013-08-29 01:24:00,70.0,68.8,29.98,NNE,16,0.0,2.0,96,0.00,,,0.00,Wunderground v.1.15,2013-08-29 06:24:00,
2013-08-29 01:30:00,70.0,68.8,29.97,North,349,1.0,1.0,96,0.00,,,0.00,Wunderground v.1.15,2013-08-29 06:30:00,
2013-08-29 01:35:00,69.9,68.7,29.97,NE,43,1.0,2.0,96,0.00,,,0.00,Wunderground v.1.15,2013-08-29 06:35:00,
2013-08-29 01:40:00,69.9,68.7,29.97,NNE,13,1.0,3.0,96,0.00,,,0.00,Wunderground v.1.15,2013-08-29 06:40:00,
2013-08-29 01:46:00,70.2,69.3,29.97,ENE,58,1.0,3.0,97,0.00,,,0.00,Wunderground v.1.15,2013-08-29 06:46:00,
2013-08-29 01:52:00,70.4,69.5,29.97,ENE,61,1.0,2.0,97,0.00,,,0.00,Wunderground v.1.15,2013-08-29 06:52:00,
2013-08-29 01:57:00,70.5,69.6,29.97,NE,46,1.0,2.0,97,0.00,,,0.00,Wunderground v.1.15,2013-08-29 06:57:00,
2013-08-29 02:02:00,70.6,69.7,29.97,NNE,19,1.0,2.0,97,0.00,,,0.00,Wunderground v.1.15,2013-08-29 07:02:00,
2013-08-29 02:08:00,70.7,69.8,29.97,North,9,1.0,2.0,97,0.00,,,0.00,Wunderground v.1.15,2013-08-29 07:08:00,
2013-08-29 02:14:00,70.7,69.8,29.97,NE,34,1.0,2.0,97,0.00,,,0.00,Wunderground v.1.15,2013-08-29 07:14:00,
2013-08-29 02:19:00,70.7,69.8,29.97,NNE,20,1.0,2.0,97,0.00,,,0.00,Wunderground v.1.15,2013-08-29 07:19:00,
2013-08-29 02:25:00,70.5,69.6,29.97,NNE,20,0.0,2.0,97,0.00,,,0.00,Wunderground v.1.15,2013-08-29 07:25:00,
2013-08-29 02:30:00,70.3,69.1,29.97,NNE,20,0.0,2.0,96,0.00,,,0.00,Wunderground v.1.15,2013-08-29 07:30:00,
2013-08-29 02:35:00,70.1,68.9,29.97,NNE,20,0.0,2.0,96,0.00,,,0.00,Wunderground v.1.15,2013-08-29 07:35:00,
2013-08-29 02:40:00,69.8,68.6,29.97,NNE,20,0.0,2.0,96,0.00,,,0.00,Wunderground v.1.15,2013-08-29 07:40:00,
2013-08-29 02:46:00,69.6,68.4,29.98,NNE,20,0.0,2.0,96,0.00,,,0.00,Wunderground v.1.15,2013-08-29 07:46:00,
2013-08-29 02:51:00,69.5,68.3,29.97,NNE,20,0.0,2.0,96,0.00,,,0.00,Wunderground v.1.15,2013-08-29 07:51:00,
2013-08-29 02:56:00,69.4,68.5,29.97,NNE,20,0.0,2.0,97,0.00,,,0.00,Wunderground v.1.15,2013-08-29 07:56:00,
2013-08-29 03:02:00,69.3,68.4,29.97,NNE,20,0.0,2.0,97,0.00,,,0.00,Wunderground v.1.15,2013-08-29 08:02:00,
2013-08-29 03:07:00,69.2,68.3,29.98,NNE,20,0.0,2.0,97,0.00,,,0.00,Wunderground v.1.15,2013-08-29 08:07:00,
2013-08-29 03:12:00,69.2,68.3,29.97,NNE,20,0.0,2.0,97,0.00,,,0.00,Wunderground v.1.15,2013-08-29 08:12:00,
2013-08-29 03:18:00,69.1,68.2,29.98,NNE,20,0.0,2.0,97,0.00,,,0.00,Wunderground v.1.15,2013-08-29 08:18:00,
2013-08-29 03:23:00,69.0,68.1,29.98,NNE,21,0.0,2.0,97,0.00,,,0.00,Wunderground v.1.15,2013-08-29 08:23:00,
2013-08-29 03:28:00,68.8,67.9,29.98,NNE,20,0.0,2.0,97,0.00,,,0.00,Wunderground v.1.15,2013-08-29 08:28:00,
2013-08-29 03:33:00,68.7,67.8,29.98,NNE,20,0.0,2.0,97,0.00,,,0.00,Wunderground v.1.15,2013-08-29 08:33:00,
2013-08-29 03:39:00,68.7,67.8,29.98,NNE,20,0.0,2.0,97,0.00,,,0.00,Wunderground v.1.15,2013-08-29 08:39:00,
2013-08-29 03:44:00,68.5,67.6,29.98,NNE,20,0.0,2.0,97,0.00,,,0.00,Wunderground v.1.15,2013-08-29 08:44:00,
2013-08-29 03:49:00,68.4,67.5,29.98,NNE,20,0.0,2.0,97,0.00,,,0.00,Wunderground v.1.15,2013-08-29 08:49:00,
2013-08-29 03:54:00,68.3,67.4,29.98,NNE,20,0.0,2.0,97,0.00,,,0.00,Wunderground v.1.15,2013-08-29 08:54:00,
2013-08-29 04:00:00,68.3,67.4,29.98,NNE,20,0.0,2.0,97,0.00,,,0.00,Wunderground v.1.15,2013-08-29 09:00:00,
2013-08-29 04:05:00,68.3,67.4,29.98,NNE,20,0.0,2.0,97,0.00,,,0.00,Wunderground v.1.15,2013-08-29 09:05:00,
2013-08-29 04:10:00,68.2,67.3,29.98,NNE,20,0.0,2.0,97,0.00,,,0.00,Wunderground v.1.15,2013-08-29 09:10:00,
2013-08-29 04:16:00,68.3,67.4,29.98,NNE,20,0.0,2.0,97,0.00,,,0.00,Wunderground v.1.15,2013-08-29 09:16:00,
2013-08-29 04:21:00,68.3,67.4,29.98,NNE,20,0.0,2.0,97,0.00,,,0.00,Wunderground v.1.15,2013-08-29 09:21:00,
2013-08-29 04:26:00,68.2,67.3,29.98,NNE,20,0.0,2.0,97,0.00,,,0.00,Wunderground v.1.15,2013-08-29 09:26:00,
2013-08-29 04:32:00,68.2,67.3,29.98,NNE,20,0.0,2.0,97,0.00,,,0.00,Wunderground v.1.15,2013-08-29 09:32:00,
2013-08-29 04:37:00,68.2,67.3,29.98,NNE,20,0.0,2.0,97,0.00,,,0.00,Wunderground v.1.15,2013-08-29 09:37:00,
2013-08-29 04:42:00,68.1,67.2,29.98,NNE,20,0.0,2.0,97,0.00,,,0.00,Wunderground v.1.15,2013-08-29 09:42:00,
2013-08-29 04:47:00,68.1,67.2,29.98,NNE,20,0.0,2.0,97,0.00,,,0.00,Wunderground v.1.15,2013-08-29 09:47:00,
2013-08-29 04:53:00,68.1,67.2,29.98,NNE,20,0.0,2.0,97,0.00,,,0.00,Wunderground v.1.15,2013-08-29 09:53:00,
2013-08-29 04:58:00,68.1,67.5,29.98,NNE,20,0.0,2.0,98,0.00,,,0.00,Wunderground v.1.15,2013-08-29 09:58:00,
2013-08-29 05:03:00,68.2,67.6,29.98,NNE,20,0.0,2.0,98,0.00,,,0.00,Wunderground v.1.15,2013-08-29 10:03:00,
2013-08-29 05:09:00,68.2,67.6,29.98,NNE,20,0.0,2.0,98,0.00,,,0.00,Wunderground v.1.15,2013-08-29 10:09:00,
2013-08-29 05:14:00,68.2,67.6,29.98,NNE,21,0.0,2.0,98,0.00,,,0.00,Wunderground v.1.15,2013-08-29 10:14:00,
2013-08-29 05:19:00,68.2,67.6,29.98,NNE,20,0.0,2.0,98,0.00,,,0.00,Wunderground v.1.15,2013-08-29 10:19:00,
2013-08-29 05:24:00,68.1,67.5,29.98,NNE,21,0.0,2.0,98,0.00,,,0.00,Wunderground v.1.15,2013-08-29 10:24:00,
2013-08-29 05:30:00,68.1,67.5,29.98,NNE,20,0.0,2.0,98,0.00,,,0.00,Wunderground v.1.15,2013-08-29 10:30:00,
2013-08-29 05:35:00,68.1,67.5,29.98,NNE,20,0.0,2.0,98,0.00,,,0.00,Wunderground v.1.15,2013-08-29 10:35:00,
2013-08-29 05:40:00,68.1,67.5,29.98,NNE,20,0.0,2.0,98,0.00,,,0.00,Wunderground v.1.15,2013-08-29 10:40:00,
2013-08-29 05:46:00,68.0,67.4,29.99,NNE,20,0.0,2.0,98,0.00,,,0.00,Wunderground v.1.15,2013-08-29 10:46:00,
2013-08-29 05:51:00,68.1,67.5,29.99,NNE,20,0.0,2.0,98,0.00,,,0.00,Wunderground v.1.15,2013-08-29 10:51:00,
2013-08-29 05:56:00,68.0,67.4,29.99,NNE,20,0.0,2.0,98,0.00,,,0.00,Wunderground v.1.15,2013-08-29 10:56:00,
2013-08-29 06:02:00,67.9,67.3,29.99,NNE,20,0.0,2.0,98,0.00,,,0.00,Wunderground v.1.15,2013-08-29 11:02:00,
2013-08-29 06:08:00,67.9,67.3,29.99,NNE,20,0.0,2.0,98,0.00,,,0.00,Wunderground v.1.15,2013-08-29 11:08:00,
2013-08-29 06:13:00,67.9,67.3,29.99,NNE,20,0.0,2.0,98,0.00,,,0.00,Wunderground v.1.15,2013-08-29 11:13:00,
2013-08-29 06:19:00,68.0,67.4,29.99,WNW,302,0.0,2.0,98,0.00,,,0.00,Wunderground v.1.15,2013-08-29 11:19:00,
2013-08-29 06:24:00,68.1,67.5,30.00,WNW,302,0.0,2.0,98,0.00,,,0.00,Wunderground v.1.15,2013-08-29 11:24:00,
2013-08-29 06:29:00,68.1,67.5,30.00,WNW,302,0.0,2.0,98,0.00,,,0.00,Wunderground v.1.15,2013-08-29 11:29:00,
2013-08-29 06:34:00,68.1,67.5,30.00,NNW,331,0.0,2.0,98,0.00,,,0.00,Wunderground v.1.15,2013-08-29 11:34:00,
2013-08-29 06:40:00,68.2,67.6,30.01,NE,36,0.0,2.0,98,0.00,,,0.00,Wunderground v.1.15,2013-08-29 11:40:00,
2013-08-29 06:45:00,68.3,67.7,30.01,NE,34,0.0,2.0,98,0.00,,,0.00,Wunderground v.1.15,2013-08-29 11:45:00,
2013-08-29 06:50:00,68.3,67.7,30.01,NE,34,0.0,2.0,98,0.00,,,0.00,Wunderground v.1.15,2013-08-29 11:50:00,
2013-08-29 06:55:00,68.3,67.7,30.01,NE,34,0.0,2.0,98,0.00,,,0.00,Wunderground v.1.15,2013-08-29 11:55:00,
2013-08-29 07:01:00,68.4,67.8,30.01,NNE,22,0.0,2.0,98,0.00,,,0.00,Wunderground v.1.15,2013-08-29 12:01:00,
2013-08-29 07:06:00,68.4,67.8,30.01,North,10,0.0,2.0,98,0.00,,,0.00,Wunderground v.1.15,2013-08-29 12:06:00,
2013-08-29 07:11:00,68.5,67.9,30.01,North,10,0.0,2.0,98,0.00,,,0.00,Wunderground v.1.15,2013-08-29 12:11:00,
2013-08-29 07:17:00,68.7,68.1,30.01,North,10,0.0,2.0,98,0.00,,,0.00,Wunderground v.1.15,2013-08-29 12:17:00,
2013-08-29 07:22:00,68.8,68.2,30.01,North,10,0.0,2.0,98,0.00,,,0.00,Wunderground v.1.15,2013-08-29 12:22:00,
2013-08-29 07:27:00,69.0,68.4,30.01,North,10,0.0,2.0,98,0.00,,,0.00,Wunderground v.1.15,2013-08-29 12:27:00,
2013-08-29 07:33:00,69.3,68.7,30.01,WNW,300,0.0,2.0,98,0.00,,,0.00,Wunderground v.1.15,2013-08-29 12:33:00,
2013-08-29 07:38:00,69.4,68.8,30.01,NNW,342,0.0,2.0,98,0.00,,,0.00,Wunderground v.1.15,2013-08-29 12:38:00,
2013-08-29 07:43:00,69.5,68.9,30.01,ENE,61,0.0,2.0,98,0.00,,,0.00,Wunderground v.1.15,2013-08-29 12:43:00,
2013-08-29 07:48:00,69.6,69.0,30.02,North,349,0.0,2.0,98,0.00,,,0.00,Wunderground v.1.15,2013-08-29 12:48:00,
2013-08-29 07:54:00,69.7,69.1,30.02,North,356,0.0,2.0,98,0.00,,,0.00,Wunderground v.1.15,2013-08-29 12:54:00,
2013-08-29 07:59:00,69.8,69.2,30.02,NW,304,0.0,2.0,98,0.00,,,0.00,Wunderground v.1.15,2013-08-29 12:59:00,
2013-08-29 08:04:00,69.9,69.3,30.02,NW,306,0.0,2.0,98,0.00,,,0.00,Wunderground v.1.15,2013-08-29 13:04:00,
2013-08-29 08:10:00,70.0,69.4,30.02,North,351,0.0,2.0,98,0.00,,,0.00,Wunderground v.1.15,2013-08-29 13:10:00,
2013-08-29 08:15:00,70.4,69.8,30.01,NNW,332,0.0,2.0,98,0.00,,,0.00,Wunderground v.1.15,2013-08-29 13:15:00,
2013-08-29 08:20:00,70.6,70.0,30.02,NW,306,0.0,2.0,98,0.00,,,0.00,Wunderground v.1.15,2013-08-29 13:20:00,
2013-08-29 08:26:00,70.7,70.1,30.02,WNW,299,1.0,2.0,98,0.00,,,0.00,Wunderground v.1.15,2013-08-29 13:26:00,
2013-08-29 08:31:00,70.9,70.3,30.01,NW,304,1.0,2.0,98,0.00,,,0.00,Wunderground v.1.15,2013-08-29 13:31:00,
2013-08-29 08:36:00,71.2,70.6,30.01,NW,313,0.0,2.0,98,0.00,,,0.00,Wunderground v.1.15,2013-08-29 13:36:00,
2013-08-29 08:41:00,71.3,70.7,30.01,NNE,15,0.0,2.0,98,0.00,,,0.00,Wunderground v.1.15,2013-08-29 13:41:00,
2013-08-29 08:47:00,71.6,71.0,30.02,NNE,15,0.0,2.0,98,0.00,,,0.00,Wunderground v.1.15,2013-08-29 13:47:00,
2013-08-29 08:52:00,71.7,71.1,30.01,NNE,15,0.0,2.0,98,0.00,,,0.00,Wunderground v.1.15,2013-08-29 13:52:00,
2013-08-29 08:57:00,72.0,71.4,30.01,North,354,0.0,2.0,98,0.00,,,0.00,Wunderground v.1.15,2013-08-29 13:57:00,
2013-08-29 09:03:00,72.3,71.4,30.02,WNW,288,0.0,2.0,97,0.00,,,0.00,Wunderground v.1.15,2013-08-29 14:03:00,
2013-08-29 09:08:00,72.5,71.6,30.01,ENE,77,0.0,2.0,97,0.00,,,0.00,Wunderground v.1.15,2013-08-29 14:08:00,
2013-08-29 09:13:00,72.9,71.7,30.02,SW,220,1.0,2.0,96,0.00,,,0.00,Wunderground v.1.15,2013-08-29 14:13:00,
2013-08-29 09:18:00,73.3,72.1,30.01,North,4,1.0,2.0,96,0.00,,,0.00,Wunderground v.1.15,2013-08-29 14:18:00,
2013-08-29 09:24:00,73.9,72.4,30.01,NNW,342,0.0,2.0,95,0.00,,,0.00,Wunderground v.1.15,2013-08-29 14:24:00,
2013-08-29 09:29:00,74.4,72.6,30.01,North,349,1.0,2.0,94,0.00,,,0.00,Wunderground v.1.15,2013-08-29 14:29:00,
2013-08-29 09:34:00,75.2,73.0,30.01,NE,51,1.0,2.0,93,0.00,,,0.00,Wunderground v.1.15,2013-08-29 14:34:00,
2013-08-29 09:40:00,75.9,73.1,30.00,NW,309,1.0,1.0,91,0.00,,,0.00,Wunderground v.1.15,2013-08-29 14:40:00,
2013-08-29 09:45:00,76.6,73.4,30.01,East,88,1.0,2.0,90,0.00,,,0.00,Wunderground v.1.15,2013-08-29 14:45:00,
2013-08-29 09:50:00,77.2,73.7,30.00,WNW,290,0.0,2.0,89,0.00,,,0.00,Wunderground v.1.15,2013-08-29 14:50:00,
2013-08-29 09:56:00,78.1,74.6,30.00,NNW,347,0.0,2.0,89,0.00,,,0.00,Wunderground v.1.15,2013-08-29 14:56:00,
2013-08-29 10:02:00,78.7,73.5,30.00,WNW,295,0.0,2.0,84,0.00,,,0.00,Wunderground v.1.15,2013-08-29 15:02:00,
2013-08-29 10:07:00,79.3,73.0,30.00,SW,222,0.0,2.0,81,0.00,,,0.00,Wunderground v.1.15,2013-08-29 15:07:00,
2013-08-29 10:12:00,79.7,73.3,30.00,WNW,300,1.0,2.0,81,0.00,,,0.00,Wunderground v.1.15,2013-08-29 15:12:00,
2013-08-29 10:18:00,80.4,74.0,30.00,West,280,1.0,2.0,81,0.00,,,0.00,Wunderground v.1.15,2013-08-29 15:18:00,
2013-08-29 10:23:00,81.0,74.2,30.00,North,352,1.0,2.0,80,0.00,,,0.00,Wunderground v.1.15,2013-08-29 15:23:00,
2013-08-29 10:28:00,81.6,74.1,30.00,North,8,1.0,2.0,78,0.00,,,0.00,Wunderground v.1.15,2013-08-29 15:28:00,
2013-08-29 10:34:00,82.1,74.6,30.00,WNW,289,1.0,2.0,78,0.00,,,0.00,Wunderground v.1.15,2013-08-29 15:34:00,
2013-08-29 10:39:00,82.7,75.1,29.99,WSW,252,1.0,2.0,78,0.00,,,0.00,Wunderground v.1.15,2013-08-29 15:39:00,
2013-08-29 10:44:00,83.1,75.5,30.00,SW,219,1.0,2.0,78,0.00,,,0.00,Wunderground v.1.15,2013-08-29 15:44:00,
2013-08-29 10:49:00,83.9,76.3,30.00,WSW,243,1.0,2.0,78,0.00,,,0.00,Wunderground v.1.15,2013-08-29 15:49:00,
2013-08-29 10:55:00,84.2,75.4,30.00,SW,222,1.0,2.0,75,0.00,,,0.00,Wunderground v.1.15,2013-08-29 15:55:00,
2013-08-29 11:00:00,84.7,75.1,29.99,NNW,331,1.0,1.0,73,0.00,,,0.00,Wunderground v.1.15,2013-08-29 16:00:00,
2013-08-29 11:05:00,85.5,75.4,29.99,SW,218,1.0,2.0,72,0.00,,,0.00,Wunderground v.1.15,2013-08-29 16:05:00,
2013-08-29 11:11:00,86.1,75.6,29.99,SW,230,1.0,2.0,71,0.00,,,0.00,Wunderground v.1.15,2013-08-29 16:11:00,
2013-08-29 11:16:00,86.8,74.5,29.99,West,265,1.0,4.0,67,0.00,,,0.00,Wunderground v.1.15,2013-08-29 16:16:00,
2013-08-29 11:21:00,87.2,74.9,29.99,SE,128,1.0,2.0,67,0.00,,,0.00,Wunderground v.1.15,2013-08-29 16:21:00,
2013-08-29 11:27:00,87.7,74.0,29.98,NE,34,0.0,2.0,64,0.00,,,0.00,Wunderground v.1.15,2013-08-29 16:27:00,
2013-08-29 11:32:00,87.7,74.0,29.98,West,276,1.0,2.0,64,0.00,,,0.00,Wunderground v.1.15,2013-08-29 16:32:00,
2013-08-29 11:37:00,87.6,75.3,29.98,East,81,1.0,2.0,67,0.00,,,0.00,Wunderground v.1.15,2013-08-29 16:37:00,
2013-08-29 11:43:00,87.4,74.2,29.98,SSW,209,1.0,4.0,65,0.00,,,0.00,Wunderground v.1.15,2013-08-29 16:43:00,
2013-08-29 11:48:00,87.5,72.9,29.98,NE,50,1.0,4.0,62,0.00,,,0.00,Wunderground v.1.15,2013-08-29 16:48:00,
2013-08-29 11:53:00,88.4,75.1,29.98,WSW,241,1.0,2.0,65,0.00,,,0.00,Wunderground v.1.15,2013-08-29 16:53:00,
2013-08-29 11:59:00,88.2,73.5,29.98,WSW,252,1.0,2.0,62,0.00,,,0.00,Wunderground v.1.15,2013-08-29 16:59:00,
2013-08-29 12:04:00,87.7,74.0,29.98,West,263,1.0,2.0,64,0.00,,,0.00,Wunderground v.1.15,2013-08-29 17:04:00,
2013-08-29 12:09:00,88.1,76.6,29.98,NE,43,1.0,2.0,69,0.00,,,0.00,Wunderground v.1.15,2013-08-29 17:09:00,
2013-08-29 12:14:00,88.6,74.4,29.97,WSW,248,1.0,2.0,63,0.00,,,0.00,Wunderground v.1.15,2013-08-29 17:14:00,
2013-08-29 12:20:00,89.4,76.5,29.97,WSW,238,1.0,2.0,66,0.00,,,0.00,Wunderground v.1.15,2013-08-29 17:20:00,
2013-08-29 12:25:00,89.6,74.9,29.97,NNE,20,1.0,2.0,62,0.00,,,0.00,Wunderground v.1.15,2013-08-29 17:25:00,
2013-08-29 12:30:00,89.8,76.5,29.97,ESE,110,1.0,1.0,65,0.00,,,0.00,Wunderground v.1.15,2013-08-29 17:30:00,
2013-08-29 12:35:00,89.7,75.4,29.96,NE,40,1.0,3.0,63,0.00,,,0.00,Wunderground v.1.15,2013-08-29 17:35:00,
2013-08-29 12:41:00,89.9,73.7,29.96,North,5,1.0,2.0,59,0.00,,,0.00,Wunderground v.1.15,2013-08-29 17:41:00,
2013-08-29 12:46:00,90.2,74.4,29.96,SW,233,1.0,2.0,60,0.00,,,0.00,Wunderground v.1.15,2013-08-29 17:46:00,
2013-08-29 12:51:00,91.1,73.7,29.96,West,271,1.0,2.0,57,0.00,,,0.00,Wunderground v.1.15,2013-08-29 17:51:00,
2013-08-29 12:57:00,91.6,74.2,29.96,East,100,1.0,2.0,57,0.00,,,0.00,Wunderground v.1.15,2013-08-29 17:57:00,
2013-08-29 13:03:00,92.1,74.7,29.96,WSW,238,1.0,2.0,57,0.00,,,0.00,Wunderground v.1.15,2013-08-29 18:03:00,
2013-08-29 13:08:00,92.4,75.5,29.96,ESE,116,1.0,2.0,58,0.00,,,0.00,Wunderground v.1.15,2013-08-29 18:08:00,
2013-08-29 13:13:00,91.8,74.9,29.96,ENE,60,1.0,2.0,58,0.00,,,0.00,Wunderground v.1.15,2013-08-29 18:13:00,
2013-08-29 13:19:00,92.1,76.2,29.96,ENE,74,1.0,2.0,60,0.00,,,0.00,Wunderground v.1.15,2013-08-29 18:19:00,
2013-08-29 13:25:00,91.9,74.5,29.96,SW,228,1.0,2.0,57,0.00,,,0.00,Wunderground v.1.15,2013-08-29 18:25:00,
2013-08-29 13:30:00,92.0,75.6,29.95,East,95,0.0,2.0,59,0.00,,,0.00,Wunderground v.1.15,2013-08-29 18:30:00,
2013-08-29 13:35:00,91.8,74.4,29.95,SW,233,1.0,2.0,57,0.00,,,0.00,Wunderground v.1.15,2013-08-29 18:35:00,
2013-08-29 13:41:00,92.1,75.7,29.95,SSW,212,1.0,2.0,59,0.00,,,0.00,Wunderground v.1.15,2013-08-29 18:41:00,
2013-08-29 13:46:00,92.3,73.2,29.95,East,93,1.0,2.0,54,0.00,,,0.00,Wunderground v.1.15,2013-08-29 18:46:00,
2013-08-29 13:51:00,92.0,74.6,29.94,NE,50,1.0,2.0,57,0.00,,,0.00,Wunderground v.1.15,2013-08-29 18:51:00,
2013-08-29 13:57:00,92.1,74.7,29.94,North,358,1.0,2.0,57,0.00,,,0.00,Wunderground v.1.15,2013-08-29 18:57:00,
2013-08-29 14:02:00,92.6,76.2,29.94,West,265,1.0,2.0,59,0.00,,,0.00,Wunderground v.1.15,2013-08-29 19:02:00,
2013-08-29 14:07:00,92.1,75.7,29.94,West,261,1.0,3.0,59,0.00,,,0.00,Wunderground v.1.15,2013-08-29 19:07:00,
2013-08-29 14:12:00,91.4,74.5,29.94,West,261,1.0,2.0,58,0.00,,,0.00,Wunderground v.1.15,2013-08-29 19:12:00,
2013-08-29 14:18:00,90.8,76.5,29.94,WSW,238,0.0,2.0,63,0.00,,,0.00,Wunderground v.1.15,2013-08-29 19:18:00,
2013-08-29 14:23:00,90.5,74.7,29.94,ENE,77,0.0,3.0,60,0.00,,,0.00,Wunderground v.1.15,2013-08-29 19:23:00,
2013-08-29 14:28:00,90.1,74.3,29.94,WNW,302,1.0,3.0,60,0.00,,,0.00,Wunderground v.1.15,2013-08-29 19:28:00,
2013-08-29 14:34:00,89.7,75.4,29.93,WSW,251,1.0,2.0,63,0.00,,,0.00,Wunderground v.1.15,2013-08-29 19:34:00,
2013-08-29 14:39:00,89.9,75.6,29.93,SW,233,1.0,4.0,63,0.00,,,0.00,Wunderground v.1.15,2013-08-29 19:39:00,
2013-08-29 14:44:00,90.6,74.3,29.93,SE,127,2.0,4.0,59,0.00,,,0.00,Wunderground v.1.15,2013-08-29 19:44:00,
2013-08-29 14:49:00,90.5,74.7,29.93,NW,315,2.0,4.0,60,0.00,,,0.00,Wunderground v.1.15,2013-08-29 19:49:00,
2013-08-29 14:55:00,90.8,74.0,29.93,NW,318,1.0,3.0,58,0.00,,,0.00,Wunderground v.1.15,2013-08-29 19:55:00,
2013-08-29 15:00:00,90.4,73.6,29.93,ENE,61,2.0,2.0,58,0.00,,,0.00,Wunderground v.1.15,2013-08-29 20:00:00,
2013-08-29 15:05:00,90.6,74.3,29.93,ESE,122,1.0,2.0,59,0.00,,,0.00,Wunderground v.1.15,2013-08-29 20:05:00,
2013-08-29 15:11:00,91.1,74.3,29.93,South,173,1.0,2.0,58,0.00,,,0.00,Wunderground v.1.15,2013-08-29 20:11:00,
2013-08-29 15:16:00,91.3,75.0,29.93,NE,37,1.0,2.0,59,0.00,,,0.00,Wunderground v.1.15,2013-08-29 20:16:00,
2013-08-29 15:21:00,91.6,74.7,29.93,SW,235,1.0,3.0,58,0.00,,,0.00,Wunderground v.1.15,2013-08-29 20:21:00,
2013-08-29 15:27:00,90.6,74.8,29.93,SSW,209,2.0,3.0,60,0.00,,,0.00,Wunderground v.1.15,2013-08-29 20:27:00,
2013-08-29 15:33:00,90.5,75.7,29.93,West,259,1.0,2.0,62,0.00,,,0.00,Wunderground v.1.15,2013-08-29 20:33:00,
2013-08-29 15:38:00,89.8,74.6,29.93,WNW,297,2.0,4.0,61,0.00,,,0.00,Wunderground v.1.15,2013-08-29 20:38:00,
2013-08-29 15:43:00,89.5,74.3,29.93,SSW,212,1.0,2.0,61,0.00,,,0.00,Wunderground v.1.15,2013-08-29 20:43:00,
2013-08-29 15:49:00,90.1,75.8,29.92,West,275,1.0,2.0,63,0.00,,,0.00,Wunderground v.1.15,2013-08-29 20:49:00,
2013-08-29 15:54:00,90.8,74.5,29.93,SE,132,1.0,3.0,59,0.00,,,0.00,Wunderground v.1.15,2013-08-29 20:54:00,
2013-08-29 15:59:00,91.1,73.7,29.92,ENE,64,2.0,4.0,57,0.00,,,0.00,Wunderground v.1.15,2013-08-29 20:59:00,
2013-08-29 16:05:00,91.6,75.2,29.92,West,261,1.0,3.0,59,0.00,,,0.00,Wunderground v.1.15,2013-08-29 21:05:00,
2013-08-29 16:10:00,92.1,74.7,29.92,ESE,122,1.0,2.0,57,0.00,,,0.00,Wunderground v.1.15,2013-08-29 21:10:00,
2013-08-29 16:15:00,92.5,76.6,29.92,NE,53,1.0,2.0,60,0.00,,,0.00,Wunderground v.1.15,2013-08-29 21:15:00,
2013-08-29 16:20:00,92.3,75.9,29.92,NNE,29,1.0,2.0,59,0.00,,,0.00,Wunderground v.1.15,2013-08-29 21:20:00,
2013-08-29 16:26:00,91.9,76.5,29.92,ENE,77,1.0,2.0,61,0.00,,,0.00,Wunderground v.1.15,2013-08-29 21:26:00,
2013-08-29 16:31:00,91.1,76.3,29.92,West,276,1.0,2.0,62,0.00,,,0.00,Wunderground v.1.15,2013-08-29 21:31:00,
2013-08-29 16:36:00,90.3,76.5,29.92,West,268,1.0,2.0,64,0.00,,,0.00,Wunderground v.1.15,2013-08-29 21:36:00,
2013-08-29 16:42:00,89.8,75.5,29.92,NNE,16,0.0,2.0,63,0.00,,,0.00,Wunderground v.1.15,2013-08-29 21:42:00,
2013-08-29 16:47:00,89.3,75.5,29.91,NW,313,0.0,2.0,64,0.00,,,0.00,Wunderground v.1.15,2013-08-29 21:47:00,
2013-08-29 16:52:00,89.0,75.7,29.92,SE,133,1.0,2.0,65,0.00,,,0.00,Wunderground v.1.15,2013-08-29 21:52:00,
2013-08-29 16:58:00,89.2,75.9,29.92,West,278,0.0,2.0,65,0.00,,,0.00,Wunderground v.1.15,2013-08-29 21:58:00,
2013-08-29 17:03:00,89.1,74.9,29.91,WSW,251,1.0,2.0,63,0.00,,,0.00,Wunderground v.1.15,2013-08-29 22:03:00,
2013-08-29 17:08:00,88.7,74.5,29.91,ESE,114,1.0,2.0,63,0.00,,,0.00,Wunderground v.1.15,2013-08-29 22:08:00,
2013-08-29 17:13:00,88.1,75.3,29.91,WSW,246,1.0,2.0,66,0.00,,,0.00,Wunderground v.1.15,2013-08-29 22:13:00,
2013-08-29 17:19:00,87.9,74.7,29.91,WSW,247,0.0,2.0,65,0.00,,,0.00,Wunderground v.1.15,2013-08-29 22:19:00,
2013-08-29 17:24:00,87.6,74.8,29.91,SE,136,1.0,2.0,66,0.00,,,0.00,Wunderground v.1.15,2013-08-29 22:24:00,
2013-08-29 17:29:00,87.3,75.9,29.91,SE,145,0.0,2.0,69,0.00,,,0.00,Wunderground v.1.15,2013-08-29 22:29:00,
2013-08-29 17:35:00,86.8,75.4,29.91,ESE,119,0.0,2.0,69,0.00,,,0.00,Wunderground v.1.15,2013-08-29 22:35:00,
2013-08-29 17:40:00,86.3,75.4,29.91,SSE,166,0.0,2.0,70,0.00,,,0.00,Wunderground v.1.15,2013-08-29 22:40:00,
2013-08-29 17:45:00,86.2,74.8,29.91,SSE,166,0.0,2.0,69,0.00,,,0.00,Wunderground v.1.15,2013-08-29 22:45:00,
2013-08-29 17:51:00,86.1,74.7,29.92,SSE,165,0.0,2.0,69,0.00,,,0.00,Wunderground v.1.15,2013-08-29 22:51:00,
2013-08-29 17:56:00,86.3,74.9,29.92,SSE,166,0.0,2.0,69,0.00,,,0.00,Wunderground v.1.15,2013-08-29 22:56:00,
2013-08-29 18:01:00,86.5,75.5,29.92,SSE,166,0.0,2.0,70,0.00,,,0.00,Wunderground v.1.15,2013-08-29 23:01:00,
2013-08-29 18:06:00,86.6,75.2,29.92,South,178,0.0,2.0,69,0.00,,,0.00,Wunderground v.1.15,2013-08-29 23:06:00,
2013-08-29 18:12:00,86.5,76.0,29.91,NE,43,0.0,2.0,71,0.00,,,0.00,Wunderground v.1.15,2013-08-29 23:12:00,
2013-08-29 18:17:00,85.9,76.6,29.91,NE,43,0.0,2.0,74,0.00,,,0.00,Wunderground v.1.15,2013-08-29 23:17:00,
2013-08-29 18:22:00,85.1,76.3,29.91,NE,43,0.0,2.0,75,0.00,,,0.00,Wunderground v.1.15,2013-08-29 23:22:00,
2013-08-29 18:28:00,84.7,76.3,29.91,NE,43,0.0,2.0,76,0.00,,,0.00,Wunderground v.1.15,2013-08-29 23:28:00,
2013-08-29 18:33:00,84.6,76.2,29.91,NE,39,0.0,2.0,76,0.00,,,0.00,Wunderground v.1.15,2013-08-29 23:33:00,
2013-08-29 18:38:00,84.3,76.3,29.90,NE,39,0.0,2.0,77,0.00,,,0.00,Wunderground v.1.15,2013-08-29 23:38:00,
2013-08-29 18:43:00,84.1,75.7,29.90,NE,39,0.0,2.0,76,0.00,,,0.00,Wunderground v.1.15,2013-08-29 23:43:00,
2013-08-29 18:49:00,84.0,74.8,29.90,NE,38,0.0,2.0,74,0.00,,,0.00,Wunderground v.1.15,2013-08-29 23:49:00,
2013-08-29 18:54:00,84.0,74.8,29.91,NE,39,0.0,2.0,74,0.00,,,0.00,Wunderground v.1.15,2013-08-29 23:54:00,
2013-08-29 18:59:00,84.0,74.8,29.91,NE,38,0.0,2.0,74,0.00,,,0.00,Wunderground v.1.15,2013-08-29 23:59:00,
2013-08-29 19:05:00,83.9,74.7,29.91,NE,39,0.0,2.0,74,0.00,,,0.00,Wunderground v.1.15,2013-08-30 00:05:00,
2013-08-29 19:10:00,83.9,76.7,29.92,NE,37,0.0,2.0,79,0.00,,,0.00,Wunderground v.1.15,2013-08-30 00:10:00,
2013-08-29 19:15:00,83.8,77.0,29.92,NE,38,0.0,2.0,80,0.00,,,0.00,Wunderground v.1.15,2013-08-30 00:15:00,
2013-08-29 19:21:00,83.6,76.4,29.92,NE,37,0.0,2.0,79,0.00,,,0.00,Wunderground v.1.15,2013-08-30 00:21:00,
2013-08-29 19:27:00,83.5,75.9,29.92,NE,38,0.0,2.0,78,0.00,,,0.00,Wunderground v.1.15,2013-08-30 00:27:00,
2013-08-29 19:32:00,83.2,75.2,29.92,NE,39,0.0,2.0,77,0.00,,,0.00,Wunderground v.1.15,2013-08-30 00:32:00,
2013-08-29 19:37:00,82.8,74.8,29.92,NE,38,0.0,2.0,77,0.00,,,0.00,Wunderground v.1.15,2013-08-30 00:37:00,
2013-08-29 19:43:00,82.5,74.6,29.92,NE,39,0.0,2.0,77,0.00,,,0.00,Wunderground v.1.15,2013-08-30 00:43:00,
2013-08-29 19:48:00,82.2,73.9,29.92,NE,37,0.0,2.0,76,0.00,,,0.00,Wunderground v.1.15,2013-08-30 00:48:00,
2013-08-29 19:53:00,82.1,74.6,29.92,NNE,30,0.0,2.0,78,0.00,,,0.00,Wunderground v.1.15,2013-08-30 00:53:00,
2013-08-29 19:59:00,81.8,75.0,29.92,NNE,28,0.0,2.0,80,0.00,,,0.00,Wunderground v.1.15,2013-08-30 00:59:00,
2013-08-29 20:04:00,81.6,75.2,29.92,NNE,29,0.0,2.0,81,0.00,,,0.00,Wunderground v.1.15,2013-08-30 01:04:00,
2013-08-29 20:09:00,81.3,75.3,29.93,NNE,32,0.0,2.0,82,0.00,,,0.00,Wunderground v.1.15,2013-08-30 01:09:00,
2013-08-29 20:14:00,81.2,74.4,29.93,NNE,32,0.0,2.0,80,0.00,,,0.00,Wunderground v.1.15,2013-08-30 01:14:00,
2013-08-29 20:20:00,81.1,74.3,29.92,NNE,32,0.0,2.0,80,0.00,,,0.00,Wunderground v.1.15,2013-08-30 01:20:00,
2013-08-29 20:25:00,81.2,74.1,29.92,NE,34,0.0,2.0,79,0.00,,,0.00,Wunderground v.1.15,2013-08-30 01:25:00,
2013-08-29 20:30:00,81.8,74.3,29.93,West,273,0.0,2.0,78,0.00,,,0.00,Wunderground v.1.15,2013-08-30 01:30:00,
2013-08-29 20:36:00,81.8,74.3,29.93,West,269,0.0,2.0,78,0.00,,,0.00,Wunderground v.1.15,2013-08-30 01:36:00,
2013-08-29 20:41:00,81.5,74.7,29.93,West,280,0.0,2.0,80,0.00,,,0.00,Wunderground v.1.15,2013-08-30 01:41:00,
2013-08-29 20:46:00,81.1,75.1,29.93,WNW,283,0.0,2.0,82,0.00,,,0.00,Wunderground v.1.15,2013-08-30 01:46:00,
2013-08-29 20:51:00,80.8,75.2,29.94,WNW,283,0.0,2.0,83,0.00,,,0.00,Wunderground v.1.15,2013-08-30 01:51:00,
2013-08-29 20:57:00,80.3,75.4,29.94,SW,225,0.0,2.0,85,0.00,,,0.00,Wunderground v.1.15,2013-08-30 01:57:00,
2013-08-29 21:02:00,79.7,75.8,29.94,WSW,249,1.0,2.0,88,0.00,,,0.00,Wunderground v.1.15,2013-08-30 02:02:00,
2013-08-29 21:07:00,79.2,75.3,29.94,SSE,149,0.0,2.0,88,0.00,,,0.00,Wunderground v.1.15,2013-08-30 02:07:00,
2013-08-29 21:13:00,78.7,75.2,29.94,SSE,149,0.0,2.0,89,0.00,,,0.00,Wunderground v.1.15,2013-08-30 02:13:00,
2013-08-29 21:18:00,78.4,75.2,29.94,SSE,147,0.0,2.0,90,0.00,,,0.00,Wunderground v.1.15,2013-08-30 02:18:00,
2013-08-29 21:23:00,78.1,75.3,29.94,SSE,148,0.0,2.0,91,0.00,,,0.00,Wunderground v.1.15,2013-08-30 02:23:00,
2013-08-29 21:29:00,77.7,74.9,29.94,SE,140,0.0,2.0,91,0.00,,,0.00,Wunderground v.1.15,2013-08-30 02:29:00,
2013-08-29 21:35:00,77.5,74.7,29.94,SE,141,0.0,2.0,91,0.00,,,0.00,Wunderground v.1.15,2013-08-30 02:35:00,
2013-08-29 21:40:00,77.5,74.7,29.94,SE,141,0.0,2.0,91,0.00,,,0.00,Wunderground v.1.15,2013-08-30 02:40:00,
2013-08-29 21:45:00,77.5,75.0,29.94,SE,140,0.0,2.0,92,0.00,,,0.00,Wunderground v.1.15,2013-08-30 02:45:00,
2013-08-29 21:51:00,77.4,74.9,29.94,SE,140,0.0,2.0,92,0.00,,,0.00,Wunderground v.1.15,2013-08-30 02:51:00,
2013-08-29 21:56:00,77.3,74.8,29.94,SE,141,0.0,2.0,92,0.00,,,0.00,Wunderground v.1.15,2013-08-30 02:56:00,
2013-08-29 22:01:00,77.2,74.7,29.94,SE,143,0.0,2.0,92,0.00,,,0.00,Wunderground v.1.15,2013-08-30 03:01:00,
2013-08-29 22:07:00,76.9,74.4,29.94,SSW,203,0.0,2.0,92,0.00,,,0.00,Wunderground v.1.15,2013-08-30 03:07:00,
2013-08-29 22:12:00,76.7,74.2,29.94,SSE,162,0.0,2.0,92,0.00,,,0.00,Wunderground v.1.15,2013-08-30 03:12:00,
2013-08-29 22:17:00,76.5,74.0,29.93,SSE,162,0.0,2.0,92,0.00,,,0.00,Wunderground v.1.15,2013-08-30 03:17:00,
2013-08-29 22:22:00,76.3,73.8,29.93,SSE,162,0.0,2.0,92,0.00,,,0.00,Wunderground v.1.15,2013-08-30 03:22:00,
2013-08-29 22:28:00,76.2,74.0,29.93,SSE,163,0.0,2.0,93,0.00,,,0.00,Wunderground v.1.15,2013-08-30 03:28:00,
2013-08-29 22:33:00,76.0,73.8,29.93,SSE,163,0.0,2.0,93,0.00,,,0.00,Wunderground v.1.15,2013-08-30 03:33:00,
2013-08-29 22:38:00,75.7,73.5,29.94,SSE,163,0.0,2.0,93,0.00,,,0.00,Wunderground v.1.15,2013-08-30 03:38:00,
2013-08-29 22:44:00,75.6,73.4,29.93,SSE,164,0.0,2.0,93,0.00,,,0.00,Wunderground v.1.15,2013-08-30 03:44:00,
2013-08-29 22:49:00,75.5,73.7,29.93,SSE,164,0.0,2.0,94,0.00,,,0.00,Wunderground v.1.15,2013-08-30 03:49:00,
2013-08-29 22:54:00,75.4,73.6,29.94,SSE,164,0.0,2.0,94,0.00,,,0.00,Wunderground v.1.15,2013-08-30 03:54:00,
2013-08-29 22:59:00,75.4,73.6,29.93,SSE,164,0.0,2.0,94,0.00,,,0.00,Wunderground v.1.15,2013-08-30 03:59:00,
2013-08-29 23:01:00,75.3,73.5,29.94,SSE,164,0.0,2.0,94,0.00,,,0.00,Wunderground v.1.15,2013-08-30 04:01:00,
2013-08-29 23:02:00,75.3,73.5,29.94,SSE,164,0.0,2.0,94,0.00,,,0.00,Wunderground v.1.15,2013-08-30 04:02:00,
2013-08-29 23:03:00,75.3,73.5,29.94,SSE,162,0.0,2.0,94,0.00,,,0.00,Wunderground v.1.15,2013-08-30 04:03:00,
2013-08-29 23:04:00,75.3,73.5,29.94,SSE,162,0.0,2.0,94,0.00,,,0.00,Wunderground v.1.15,2013-08-30 04:04:00,
2013-08-29 23:08:00,75.2,73.4,29.93,SSE,163,0.0,2.0,94,0.00,,,0.00,Wunderground v.1.15,2013-08-30 04:08:00,
2013-08-29 23:13:00,75.2,73.4,29.93,SSE,162,0.0,2.0,94,0.00,,,0.00,Wunderground v.1.15,2013-08-30 04:13:00,
2013-08-29 23:19:00,75.1,73.3,29.93,SSE,164,0.0,2.0,94,0.00,,,0.00,Wunderground v.1.15,2013-08-30 04:19:00,
2013-08-29 23:25:00,74.9,73.1,29.93,SSE,163,0.0,2.0,94,0.00,,,0.00,Wunderground v.1.15,2013-08-30 04:25:00,
2013-08-29 23:30:00,74.9,73.4,29.94,SSE,164,0.0,2.0,95,0.00,,,0.00,Wunderground v.1.15,2013-08-30 04:30:00,
2013-08-29 23:35:00,74.7,73.2,29.93,SSE,164,0.0,2.0,95,0.00,,,0.00,Wunderground v.1.15,2013-08-30 04:35:00,
2013-08-29 23:41:00,74.6,73.1,29.94,SSE,164,0.0,2.0,95,0.00,,,0.00,Wunderground v.1.15,2013-08-30 04:41:00,
2013-08-29 23:46:00,74.6,73.4,29.93,SSE,164,0.0,2.0,96,0.00,,,0.00,Wunderground v.1.15,2013-08-30 04:46:00,
2013-08-29 23:51:00,74.6,73.4,29.93,SSE,163,0.0,2.0,96,0.00,,,0.00,Wunderground v.1.15,2013-08-30 04:51:00,
2013-08-29 23:57:00,74.6,73.4,29.93,SSE,164,0.0,2.0,96,0.00,,,0.00,Wunderground v.1.15,2013-08-30 04:57:00,